Regional Weather Roundup
Issued by NWS Glasgow, MT

Home | Current Version | Previous Version | Text Only | Print | Product List | Glossary On
Versions: 1 2 3 4 5 6 7 8 9 10 11 12 13 14 15 16 17 18 19 20 21 22 23 24 25 26 27 28
000
ASUS45 KGGW 211015
RWRGGW
HOURLY REGIONAL WEATHER ROUNDUP FOR NORTHEAST MONTANA
NATIONAL WEATHER SERVICE GLASGOW MONTANA
300 AM MST SAT JAN 21 2017

NOTE: "FAIR" INDICATES FEW OR NO CLOUDS BELOW 12,000 FEET WITH NO
SIGNIFICANT WEATHER AND/OR OBSTRUCTIONS TO VISISBILITY.

NORTHEAST MONTANA


CITY           SKY/WX    TMP DP  RH WIND       PRES   REMARKS
GLASGOW        CLOUDY    20  18  92 W7        29.35R
PLENTYWOOD       N/A     31  28  89 NW3         N/A
WOLF POINT     CLOUDY    27  24  89 SW7       29.35S
JORDAN           N/A     16  12  84 CALM      29.35S
WINNETT          N/A     15  14  95 S1          N/A
SIDNEY         CLOUDY    34  28  79 W16       29.32R
GLENDIVE       CLOUDY    27  24  89 W7        29.34

FORT PECK REPORTS


CITY           SKY/WX    TMP DP  RH WIND       PRES   REMARKS
FORT PECK        N/A     26  25  96 S3G12       N/A
THE PINES        N/A     28  24  85 CALM        N/A

SOUTHEAST MONTANA


CITY           SKY/WX    TMP DP  RH WIND       PRES   REMARKS
BILLINGS       PTCLDY    22  20  92 SW14      29.35S
MILES CITY     FOG       20  17  88 CALM      29.37R VSB 1/4
BAKER          CLOUDY    26  24  92 W6        29.34S
LIVINGSTON     CLOUDY    13   7  77 NW5       29.33S

CENTRAL MONTANA


CITY           SKY/WX    TMP DP  RH WIND       PRES   REMARKS
HAVRE          PTCLDY    16  14  92 CALM      29.37R
LEWISTOWN      CLEAR     19  15  84 CALM      29.33S
GREAT FALLS    CLEAR     21  16  81 W5        29.33R
CUT BANK       CLEAR     16  13  88 NW7       29.32R
HELENA         CLOUDY    10   7  87 CALM      29.35R
BUTTE          CLOUDY     2  -2  83 CALM      29.30S
BOZEMAN        CLOUDY     6   2  83 CALM      29.33S

WESTERN MONTANA


CITY           SKY/WX    TMP DP  RH WIND       PRES   REMARKS
MISSOULA       CLOUDY    21  20  96 CALM      29.35R FOG
KALISPELL      NOT AVBL

NORTH DAKOTA


CITY           SKY/WX    TMP DP  RH WIND       PRES   REMARKS
WILLISTON      CLOUDY    25  22  88 CALM      29.30F
DICKINSON      CLOUDY    29  26  89 NW9       29.26F
MINOT          CLOUDY    29  27  92 CALM      29.30F FOG
BISMARCK       CLOUDY    30  29  96 NW5       29.32S FOG

SOUTHERN SASKATCHEWAN


CITY           SKY/WX    TMP DP  RH WIND       PRES   REMARKS
REGINA         CLOUDY    18  16  93 E3        29.28F
ESTEVAN        FOG       14  12  92 SE2       29.29S VSB 1/8
SWIFT CURRENT  CLOUDY    25  23  93 NW10      29.29R





USA.gov is the U.S. government's official web portal to all federal, state and local government web resources and services.